Time,TemperatureF,DewpointF,PressureIn,WindDirection,WindDirectionDegrees,WindSpeedMPH,WindSpeedGustMPH,Humidity,HourlyPrecipIn,Conditions,Clouds,dailyrainin,SoftwareType,DateUTC
2013-11-01 00:06:00,44.9,-3.0,29.76,SW,222,4.0,8.0,13,0.00,,,0.00,weatherlink.com 1.10,2013-11-01 07:06:00,
2013-11-01 00:21:00,44.8,-4.0,29.76,SW,226,3.0,5.0,13,0.00,,,0.00,weatherlink.com 1.10,2013-11-01 07:21:00,
2013-11-01 00:36:00,45.1,-5.0,29.76,SW,224,1.0,2.0,12,0.00,,,0.00,weatherlink.com 1.10,2013-11-01 07:36:00,
2013-11-01 00:51:00,45.9,-13.0,29.76,SSW,212,1.0,3.0,8,0.00,,,0.00,weatherlink.com 1.10,2013-11-01 07:51:00,
2013-11-01 01:06:00,45.5,-11.0,29.76,WSW,239,1.0,2.0,9,0.00,,,0.00,weatherlink.com 1.10,2013-11-01 08:06:00,
2013-11-01 01:22:00,45.7,-8.0,29.76,SW,233,2.0,3.0,10,0.00,,,0.00,weatherlink.com 1.10,2013-11-01 08:22:00,
2013-11-01 01:37:00,45.0,-5.0,29.76,SW,224,2.0,2.0,12,0.00,,,0.00,weatherlink.com 1.10,2013-11-01 08:37:00,
2013-11-01 01:52:00,45.2,1.0,29.75,South,169,1.0,4.0,16,0.00,,,0.00,weatherlink.com 1.10,2013-11-01 08:52:00,
2013-11-01 02:07:00,44.1,-1.0,29.75,SW,229,0.0,1.0,15,0.00,,,0.00,weatherlink.com 1.10,2013-11-01 09:07:00,
2013-11-01 02:22:00,43.8,-1.0,29.75,SW,229,0.0,1.0,15,0.00,,,0.00,weatherlink.com 1.10,2013-11-01 09:22:00,
2013-11-01 02:37:00,43.3,0.0,29.75,WSW,253,3.0,3.0,16,0.00,,,0.00,weatherlink.com 1.10,2013-11-01 09:37:00,
2013-11-01 02:52:00,44.0,9.0,29.74,SW,215,4.0,5.0,24,0.00,,,0.00,weatherlink.com 1.10,2013-11-01 09:52:00,
2013-11-01 03:07:00,47.8,15.0,29.74,West,260,4.0,10.0,27,0.00,,,0.00,weatherlink.com 1.10,2013-11-01 10:07:00,
2013-11-01 03:22:00,47.2,14.0,29.74,SW,218,7.0,11.0,26,0.00,,,0.00,weatherlink.com 1.10,2013-11-01 10:22:00,
2013-11-01 03:37:00,46.4,12.0,29.74,West,260,1.0,5.0,25,0.00,,,0.00,weatherlink.com 1.10,2013-11-01 10:37:00,
2013-11-01 03:52:00,44.0,4.0,29.74,SW,219,4.0,4.0,19,0.00,,,0.00,weatherlink.com 1.10,2013-11-01 10:52:00,
2013-11-01 04:07:00,44.7,9.0,29.74,West,264,5.0,7.0,23,0.00,,,0.00,weatherlink.com 1.10,2013-11-01 11:07:00,
2013-11-01 04:22:00,45.0,11.0,29.75,WSW,237,4.0,7.0,25,0.00,,,0.00,weatherlink.com 1.10,2013-11-01 11:22:00,
2013-11-01 04:37:00,44.3,9.0,29.75,SW,233,3.0,5.0,24,0.00,,,0.00,weatherlink.com 1.10,2013-11-01 11:37:00,
2013-11-01 04:52:00,44.3,10.0,29.75,WSW,253,6.0,6.0,25,0.00,,,0.00,weatherlink.com 1.10,2013-11-01 11:52:00,
2013-11-01 05:08:00,44.8,9.0,29.76,WSW,257,5.0,6.0,23,0.00,,,0.00,weatherlink.com 1.10,2013-11-01 12:08:00,
2013-11-01 05:23:00,44.9,7.0,29.76,WSW,250,5.0,8.0,21,0.00,,,0.00,weatherlink.com 1.10,2013-11-01 12:23:00,
2013-11-01 05:38:00,44.8,3.0,29.76,WSW,253,7.0,7.0,18,0.00,,,0.00,weatherlink.com 1.10,2013-11-01 12:38:00,
2013-11-01 05:53:00,44.5,4.0,29.76,West,267,3.0,6.0,19,0.00,,,0.00,weatherlink.com 1.10,2013-11-01 12:53:00,
2013-11-01 06:08:00,43.7,6.0,29.77,WNW,282,2.0,6.0,21,0.00,,,0.00,weatherlink.com 1.10,2013-11-01 13:08:00,
2013-11-01 06:23:00,43.2,9.0,29.77,SW,229,2.0,5.0,25,0.00,,,0.00,weatherlink.com 1.10,2013-11-01 13:23:00,
2013-11-01 06:38:00,42.5,12.0,29.78,SW,229,1.0,3.0,29,0.00,,,0.00,weatherlink.com 1.10,2013-11-01 13:38:00,
2013-11-01 06:53:00,42.7,12.0,29.78,SW,230,1.0,3.0,29,0.00,,,0.00,weatherlink.com 1.10,2013-11-01 13:53:00,
2013-11-01 07:08:00,43.2,14.0,29.79,SW,226,1.0,2.0,30,0.00,,,0.00,weatherlink.com 1.10,2013-11-01 14:08:00,
2013-11-01 07:23:00,43.4,13.0,29.79,West,263,1.0,3.0,29,0.00,,,0.00,weatherlink.com 1.10,2013-11-01 14:23:00,
2013-11-01 07:38:00,43.7,12.0,29.80,West,281,1.0,3.0,27,0.00,,,0.00,weatherlink.com 1.10,2013-11-01 14:38:00,
2013-11-01 07:53:00,44.3,14.0,29.80,West,262,2.0,4.0,29,0.00,,,0.00,weatherlink.com 1.10,2013-11-01 14:53:00,
2013-11-01 08:08:00,45.1,18.0,29.81,NW,304,4.0,6.0,34,0.00,,,0.00,weatherlink.com 1.10,2013-11-01 15:08:00,
2013-11-01 08:23:00,45.7,18.0,29.81,NW,308,2.0,3.0,33,0.00,,,0.00,weatherlink.com 1.10,2013-11-01 15:23:00,
2013-11-01 08:39:00,46.2,19.0,29.81,NNW,330,1.0,5.0,34,0.00,,,0.00,weatherlink.com 1.10,2013-11-01 15:39:00,
2013-11-01 08:54:00,46.8,19.0,29.81,WNW,290,1.0,7.0,33,0.00,,,0.00,weatherlink.com 1.10,2013-11-01 15:54:00,
2013-11-01 09:09:00,47.6,21.0,29.81,ENE,60,0.0,4.0,35,0.00,,,0.00,weatherlink.com 1.10,2013-11-01 16:09:00,
2013-11-01 09:24:00,48.1,21.0,29.81,North,350,1.0,2.0,35,0.00,,,0.00,weatherlink.com 1.10,2013-11-01 16:24:00,
2013-11-01 09:39:00,48.0,19.0,29.81,West,261,0.0,3.0,32,0.00,,,0.00,weatherlink.com 1.10,2013-11-01 16:39:00,
2013-11-01 09:54:00,48.9,22.0,29.81,NNE,30,4.0,4.0,35,0.00,,,0.00,weatherlink.com 1.10,2013-11-01 16:54:00,
2013-11-01 10:09:00,48.6,22.0,29.81,ENE,67,4.0,5.0,35,0.00,,,0.00,weatherlink.com 1.10,2013-11-01 17:09:00,
2013-11-01 10:24:00,48.8,22.0,29.81,ENE,63,3.0,6.0,35,0.00,,,0.00,weatherlink.com 1.10,2013-11-01 17:24:00,
2013-11-01 10:39:00,49.3,22.0,29.81,NE,56,4.0,8.0,34,0.00,,,0.00,weatherlink.com 1.10,2013-11-01 17:39:00,
2013-11-01 10:54:00,49.2,22.0,29.81,NE,44,3.0,6.0,34,0.00,,,0.00,weatherlink.com 1.10,2013-11-01 17:54:00,
2013-11-01 11:09:00,50.2,22.0,29.82,NNE,18,1.0,5.0,33,0.00,,,0.00,weatherlink.com 1.10,2013-11-01 18:09:00,
2013-11-01 11:24:00,50.4,22.0,29.81,ESE,108,4.0,4.0,33,0.00,,,0.00,weatherlink.com 1.10,2013-11-01 18:24:00,
2013-11-01 11:39:00,52.4,22.0,29.81,SE,139,0.0,2.0,30,0.00,,,0.00,weatherlink.com 1.10,2013-11-01 18:39:00,
2013-11-01 11:55:00,53.6,22.0,29.80,NE,40,2.0,3.0,29,0.00,,,0.00,weatherlink.com 1.10,2013-11-01 18:55:00,
2013-11-01 12:10:00,54.0,21.0,29.80,NE,48,4.0,4.0,28,0.00,,,0.00,weatherlink.com 1.10,2013-11-01 19:10:00,
2013-11-01 12:25:00,54.0,21.0,29.79,ENE,73,2.0,4.0,28,0.00,,,0.00,weatherlink.com 1.10,2013-11-01 19:25:00,
2013-11-01 12:40:00,54.3,20.0,29.78,NE,34,1.0,4.0,26,0.00,,,0.00,weatherlink.com 1.10,2013-11-01 19:40:00,
2013-11-01 12:55:00,54.7,20.0,29.77,ENE,70,1.0,4.0,26,0.00,,,0.00,weatherlink.com 1.10,2013-11-01 19:55:00,
2013-11-01 13:10:00,54.2,20.0,29.77,NE,43,0.0,4.0,26,0.00,,,0.00,weatherlink.com 1.10,2013-11-01 20:10:00,
2013-11-01 13:25:00,55.0,20.0,29.76,ENE,77,1.0,4.0,26,0.00,,,0.00,weatherlink.com 1.10,2013-11-01 20:25:00,
2013-11-01 13:40:00,54.1,21.0,29.76,ENE,61,2.0,4.0,27,0.00,,,0.00,weatherlink.com 1.10,2013-11-01 20:40:00,
2013-11-01 13:55:00,53.4,19.0,29.76,ENE,76,2.0,4.0,26,0.00,,,0.00,weatherlink.com 1.10,2013-11-01 20:55:00,
2013-11-01 14:10:00,53.4,19.0,29.76,ENE,64,2.0,4.0,26,0.00,,,0.00,weatherlink.com 1.10,2013-11-01 21:10:00,
2013-11-01 14:25:00,53.5,20.0,29.76,ENE,68,1.0,3.0,27,0.00,,,0.00,weatherlink.com 1.10,2013-11-01 21:25:00,
2013-11-01 14:40:00,54.7,20.0,29.76,ENE,64,2.0,3.0,26,0.00,,,0.00,weatherlink.com 1.10,2013-11-01 21:40:00,
2013-11-01 14:55:00,54.0,20.0,29.76,NE,53,2.0,3.0,26,0.00,,,0.00,weatherlink.com 1.10,2013-11-01 21:55:00,
2013-11-01 15:10:00,53.9,20.0,29.76,NE,47,3.0,5.0,26,0.00,,,0.00,weatherlink.com 1.10,2013-11-01 22:10:00,
2013-11-01 15:26:00,53.4,19.0,29.76,ENE,62,2.0,3.0,26,0.00,,,0.00,weatherlink.com 1.10,2013-11-01 22:26:00,
2013-11-01 15:41:00,52.8,19.0,29.75,ENE,72,2.0,4.0,27,0.00,,,0.00,weatherlink.com 1.10,2013-11-01 22:41:00,
2013-11-01 15:56:00,52.0,19.0,29.75,ENE,70,2.0,3.0,27,0.00,,,0.00,weatherlink.com 1.10,2013-11-01 22:56:00,
2013-11-01 16:11:00,51.4,18.0,29.75,ENE,73,2.0,3.0,27,0.00,,,0.00,weatherlink.com 1.10,2013-11-01 23:11:00,
2013-11-01 16:26:00,51.2,18.0,29.75,ENE,71,2.0,4.0,27,0.00,,,0.00,weatherlink.com 1.10,2013-11-01 23:26:00,
2013-11-01 16:41:00,50.7,18.0,29.75,ENE,77,4.0,4.0,27,0.00,,,0.00,weatherlink.com 1.10,2013-11-01 23:41:00,
2013-11-01 16:56:00,49.8,17.0,29.74,ENE,71,2.0,4.0,27,0.00,,,0.00,weatherlink.com 1.10,2013-11-01 23:56:00,
2013-11-01 17:11:00,48.9,17.0,29.74,ENE,74,2.0,3.0,28,0.00,,,0.00,weatherlink.com 1.10,2013-11-02 00:11:00,
2013-11-01 17:26:00,50.5,14.0,29.74,East,82,2.0,3.0,23,0.00,,,0.00,weatherlink.com 1.10,2013-11-02 00:26:00,
2013-11-01 17:41:00,49.9,13.0,29.74,East,94,4.0,4.0,23,0.00,,,0.00,weatherlink.com 1.10,2013-11-02 00:41:00,
2013-11-01 17:56:00,50.1,8.0,29.75,ESE,113,3.0,4.0,18,0.00,,,0.00,weatherlink.com 1.10,2013-11-02 00:56:00,
2013-11-01 18:11:00,50.9,3.0,29.75,ESE,113,4.0,5.0,14,0.00,,,0.00,weatherlink.com 1.10,2013-11-02 01:11:00,
2013-11-01 18:26:00,52.0,4.0,29.76,ENE,76,4.0,4.0,14,0.00,,,0.00,weatherlink.com 1.10,2013-11-02 01:26:00,
2013-11-01 18:41:00,50.6,4.0,29.76,East,89,3.0,5.0,15,0.00,,,0.00,weatherlink.com 1.10,2013-11-02 01:41:00,
2013-11-01 18:56:00,49.8,5.0,29.76,ENE,78,4.0,4.0,16,0.00,,,0.00,weatherlink.com 1.10,2013-11-02 01:56:00,
2013-11-01 19:11:00,49.6,6.0,29.76,ENE,71,4.0,5.0,17,0.00,,,0.00,weatherlink.com 1.10,2013-11-02 02:11:00,
2013-11-01 19:27:00,50.2,1.0,29.76,ENE,68,5.0,6.0,13,0.00,,,0.00,weatherlink.com 1.10,2013-11-02 02:27:00,
2013-11-01 19:42:00,50.5,7.0,29.77,ENE,73,5.0,5.0,17,0.00,,,0.00,weatherlink.com 1.10,2013-11-02 02:42:00,
2013-11-01 19:57:00,50.7,-1.0,29.77,East,82,3.0,3.0,12,0.00,,,0.00,weatherlink.com 1.10,2013-11-02 02:57:00,
2013-11-01 20:12:00,52.4,-10.0,29.77,ESE,102,4.0,5.0,7,0.00,,,0.00,weatherlink.com 1.10,2013-11-02 03:12:00,
2013-11-01 20:27:00,52.7,-13.0,29.77,ESE,122,3.0,4.0,6,0.00,,,0.00,weatherlink.com 1.10,2013-11-02 03:27:00,
2013-11-01 20:42:00,53.7,-13.0,29.77,East,86,2.0,4.0,6,0.00,,,0.00,weatherlink.com 1.10,2013-11-02 03:42:00,
2013-11-01 20:57:00,53.8,-13.0,29.77,SE,124,3.0,5.0,6,0.00,,,0.00,weatherlink.com 1.10,2013-11-02 03:57:00,
2013-11-01 21:12:00,53.8,-9.0,29.77,East,101,2.0,4.0,7,0.00,,,0.00,weatherlink.com 1.10,2013-11-02 04:12:00,
2013-11-01 21:27:00,52.6,-3.0,29.77,ENE,71,2.0,3.0,10,0.00,,,0.00,weatherlink.com 1.10,2013-11-02 04:27:00,
2013-11-01 21:42:00,52.5,-8.0,29.77,ENE,74,2.0,6.0,8,0.00,,,0.00,weatherlink.com 1.10,2013-11-02 04:42:00,
2013-11-01 21:57:00,53.9,-4.0,29.77,East,82,5.0,7.0,9,0.00,,,0.00,weatherlink.com 1.10,2013-11-02 04:57:00,
2013-11-01 22:12:00,54.4,-1.0,29.77,ENE,69,6.0,9.0,10,0.00,,,0.00,weatherlink.com 1.10,2013-11-02 05:12:00,
2013-11-01 22:27:00,53.4,0.0,29.77,ENE,74,6.0,12.0,11,0.00,,,0.00,weatherlink.com 1.10,2013-11-02 05:27:00,
2013-11-01 22:43:00,52.6,3.0,29.76,NE,55,9.0,13.0,13,0.00,,,0.00,weatherlink.com 1.10,2013-11-02 05:43:00,
2013-11-01 22:58:00,51.8,12.0,29.75,East,82,12.0,13.0,20,0.00,,,0.00,weatherlink.com 1.10,2013-11-02 05:58:00,
2013-11-01 23:13:00,51.8,14.0,29.76,NNE,16,8.0,14.0,22,0.00,,,0.00,weatherlink.com 1.10,2013-11-02 06:13:00,
2013-11-01 23:28:00,51.1,13.0,29.76,ENE,68,10.0,12.0,22,0.00,,,0.00,weatherlink.com 1.10,2013-11-02 06:28:00,
2013-11-01 23:43:00,50.3,15.0,29.76,East,79,3.0,11.0,24,0.00,,,0.00,weatherlink.com 1.10,2013-11-02 06:43:00,
2013-11-01 23:58:00,50.2,15.0,29.75,ENE,65,5.0,11.0,24,0.00,,,0.00,weatherlink.com 1.10,2013-11-02 06:58:00,